User: anonymous   Login
Location: Unspecified
(0.0000°N, 0.0000°E)
Time: 22:49:03
(UTC+00:00)
Language:

UNISAT 2 - Orbit

View from above orbital plane
View from above orbital plane
View from above satellite
View from above satellite

Ground track
Ground track

The orbit data is extracted from the following two-line orbital elements,

1 27608U 02058D   17113.89375730 +.00000176 +00000-0 +43763-4 0  9994
2 27608 064.5558 218.9947 0014667 102.6524 257.6220 14.77796955772529
Epoch (UTC): 23 April 2017 21:27:00
Eccentricity: 0.0014667
inclination: 64.5558°
perigee height: 626 km
apogee height: 646 km
right ascension of ascending node: 218.9947°
argument of perigee: 102.6524°
revolutions per day: 14.77796955
mean anomaly at epoch: 257.6220°
orbit number at epoch: 77252

The dashed part of the orbit path shows where the satellite is in the earth's shadow,  

DLR